Time,TemperatureF,DewpointF,PressureIn,WindDirection,WindDirectionDegrees,WindSpeedMPH,WindSpeedGustMPH,Humidity,HourlyPrecipIn,Conditions,Clouds,dailyrainin,SoftwareType,DateUTC
2013-03-19 00:02:00,38.0,30.0,29.98,WNW,296,7.0,12.0,74,0.00,,,1.02,,2013-03-19 05:02:00,
2013-03-19 00:12:00,38.0,30.0,29.98,WNW,296,7.0,12.0,74,0.00,,,1.02,,2013-03-19 05:12:00,
2013-03-19 00:22:00,37.0,29.0,29.98,NW,319,6.0,15.0,73,0.00,,,0.90,,2013-03-19 05:22:00,
2013-03-19 00:32:00,37.0,29.0,29.99,NW,316,5.0,13.0,73,0.00,,,0.90,,2013-03-19 05:32:00,
2013-03-19 00:42:00,37.0,29.0,29.99,NW,316,5.0,13.0,73,0.00,,,0.90,,2013-03-19 05:42:00,
2013-03-19 00:52:00,36.0,28.0,30.00,NW,309,5.0,15.0,72,0.00,,,0.90,,2013-03-19 05:52:00,
2013-03-19 01:02:00,35.0,27.0,30.01,NW,318,4.0,11.0,73,0.00,,,0.90,,2013-03-19 06:02:00,
2013-03-19 01:12:00,35.0,27.0,30.01,NW,318,4.0,11.0,73,0.00,,,0.90,,2013-03-19 06:12:00,
2013-03-19 01:22:00,35.0,26.0,30.02,NW,317,9.0,18.0,70,0.00,,,0.76,,2013-03-19 06:22:00,
2013-03-19 01:32:00,34.0,26.0,30.03,NW,321,3.0,11.0,71,0.00,,,0.76,,2013-03-19 06:32:00,
2013-03-19 01:42:00,34.0,26.0,30.03,NW,321,3.0,11.0,71,0.00,,,0.76,,2013-03-19 06:42:00,
2013-03-19 01:52:00,34.0,25.0,30.03,WNW,288,4.0,12.0,68,0.00,,,0.76,,2013-03-19 06:52:00,
2013-03-19 02:02:00,34.0,25.0,30.04,NW,324,6.0,11.0,69,0.00,,,0.76,,2013-03-19 07:02:00,
2013-03-19 02:12:00,34.0,25.0,30.04,NW,324,6.0,11.0,69,0.00,,,0.76,,2013-03-19 07:12:00,
2013-03-19 02:21:00,33.0,23.0,30.04,WNW,286,8.0,14.0,67,0.00,,,0.61,,2013-03-19 07:21:00,
2013-03-19 02:32:00,33.0,24.0,30.04,NNW,327,5.0,16.0,68,0.00,,,0.61,,2013-03-19 07:32:00,
2013-03-19 02:42:00,33.0,24.0,30.04,NNW,327,5.0,16.0,68,0.00,,,0.61,,2013-03-19 07:42:00,
2013-03-19 02:52:00,32.0,22.0,30.05,WNW,288,7.0,14.0,67,0.00,,,0.61,,2013-03-19 07:52:00,
2013-03-19 03:02:00,32.0,22.0,30.05,WNW,287,6.0,14.0,67,0.00,,,0.61,,2013-03-19 08:02:00,
2013-03-19 03:12:00,32.0,22.0,30.05,WNW,287,6.0,14.0,67,0.00,,,0.61,,2013-03-19 08:12:00,
2013-03-19 03:22:00,32.0,23.0,30.06,WNW,285,6.0,13.0,68,0.00,,,0.47,,2013-03-19 08:22:00,
2013-03-19 03:32:00,32.0,23.0,30.06,WNW,291,5.0,11.0,68,0.00,,,0.47,,2013-03-19 08:32:00,
2013-03-19 03:42:00,32.0,23.0,30.06,WNW,291,5.0,11.0,68,0.00,,,0.47,,2013-03-19 08:42:00,
2013-03-19 03:52:00,32.0,23.0,30.06,WNW,291,5.0,11.0,68,0.00,,,0.47,,2013-03-19 08:52:00,
2013-03-19 04:02:00,31.0,23.0,30.07,WNW,287,4.0,8.0,71,0.00,,,0.47,,2013-03-19 09:02:00,
2013-03-19 04:12:00,31.0,23.0,30.07,WNW,287,4.0,8.0,71,0.00,,,0.47,,2013-03-19 09:12:00,
2013-03-19 04:22:00,31.0,21.0,30.07,NW,306,7.0,15.0,66,0.00,,,0.34,,2013-03-19 09:22:00,
2013-03-19 04:32:00,31.0,21.0,30.07,NW,306,7.0,15.0,66,0.00,,,0.34,,2013-03-19 09:32:00,
2013-03-19 04:42:00,31.0,21.0,30.07,NW,306,7.0,15.0,66,0.00,,,0.34,,2013-03-19 09:42:00,
2013-03-19 04:53:00,31.0,20.0,30.08,WNW,282,4.0,11.0,64,0.00,,,0.34,,2013-03-19 09:53:00,
2013-03-19 05:03:00,30.0,20.0,30.07,WNW,291,0.0,5.0,67,0.00,,,0.34,,2013-03-19 10:03:00,
2013-03-19 05:12:00,30.0,20.0,30.07,WNW,291,0.0,5.0,67,0.00,,,0.34,,2013-03-19 10:12:00,
2013-03-19 05:23:00,30.0,21.0,30.07,WNW,296,0.0,0.0,70,0.00,,,0.23,,2013-03-19 10:23:00,
2013-03-19 05:32:00,29.0,21.0,30.07,WSW,248,0.0,7.0,72,0.00,,,0.23,,2013-03-19 10:32:00,
2013-03-19 05:42:00,29.0,21.0,30.07,WSW,248,0.0,7.0,72,0.00,,,0.23,,2013-03-19 10:42:00,
2013-03-19 05:53:00,30.0,21.0,30.08,West,279,1.0,5.0,70,0.00,,,0.23,,2013-03-19 10:53:00,
2013-03-19 06:02:00,30.0,21.0,30.09,West,281,1.0,7.0,69,0.00,,,0.23,,2013-03-19 11:02:00,
2013-03-19 06:12:00,30.0,21.0,30.09,West,281,1.0,7.0,69,0.00,,,0.23,,2013-03-19 11:12:00,
2013-03-19 06:22:00,30.0,21.0,30.09,West,279,3.0,7.0,69,0.00,,,0.15,,2013-03-19 11:22:00,
2013-03-19 06:32:00,30.0,20.0,30.09,WNW,284,3.0,10.0,66,0.00,,,0.15,,2013-03-19 11:32:00,
2013-03-19 06:42:00,30.0,20.0,30.09,WNW,284,3.0,10.0,66,0.00,,,0.15,,2013-03-19 11:42:00,
2013-03-19 06:52:00,30.0,21.0,30.10,NW,311,0.0,5.0,68,0.00,,,0.15,,2013-03-19 11:52:00,
2013-03-19 07:02:00,30.0,20.0,30.10,WNW,300,2.0,7.0,67,0.00,,,0.15,,2013-03-19 12:02:00,
2013-03-19 07:12:00,30.0,20.0,30.10,WNW,300,2.0,7.0,67,0.00,,,0.15,,2013-03-19 12:12:00,
2013-03-19 07:22:00,30.0,20.0,30.10,WNW,303,3.0,8.0,67,0.00,,,0.07,,2013-03-19 12:22:00,
2013-03-19 07:33:00,30.0,20.0,30.10,WNW,300,2.0,9.0,67,0.00,,,0.07,,2013-03-19 12:33:00,
2013-03-19 07:42:00,30.0,20.0,30.10,WNW,300,2.0,9.0,67,0.00,,,0.07,,2013-03-19 12:42:00,
2013-03-19 07:52:00,31.0,21.0,30.11,WNW,289,2.0,7.0,67,0.00,,,0.07,,2013-03-19 12:52:00,
2013-03-19 08:02:00,31.0,21.0,30.11,WNW,298,4.0,8.0,65,0.00,,,0.07,,2013-03-19 13:02:00,
2013-03-19 08:12:00,31.0,21.0,30.11,WNW,298,4.0,8.0,65,0.00,,,0.07,,2013-03-19 13:12:00,
2013-03-19 08:22:00,31.0,20.0,30.12,WNW,289,6.0,11.0,64,0.00,,,0.02,,2013-03-19 13:22:00,
2013-03-19 08:32:00,32.0,20.0,30.13,WNW,297,7.0,13.0,62,0.00,,,0.02,,2013-03-19 13:32:00,
2013-03-19 08:42:00,32.0,20.0,30.13,WNW,297,7.0,13.0,62,0.00,,,0.02,,2013-03-19 13:42:00,
2013-03-19 08:53:00,32.0,20.0,30.13,WNW,297,7.0,13.0,62,0.00,,,0.02,,2013-03-19 13:53:00,
2013-03-19 09:02:00,33.0,22.0,30.14,WNW,300,5.0,14.0,63,0.00,,,0.02,,2013-03-19 14:02:00,
2013-03-19 09:12:00,33.0,22.0,30.14,WNW,300,5.0,14.0,63,0.00,,,0.02,,2013-03-19 14:12:00,
2013-03-19 09:22:00,33.0,21.0,30.14,WNW,286,7.0,14.0,61,0.00,,,0.01,,2013-03-19 14:22:00,
2013-03-19 09:32:00,33.0,20.0,30.15,NW,317,7.0,14.0,59,0.00,,,0.01,,2013-03-19 14:32:00,
2013-03-19 09:42:00,33.0,20.0,30.15,NW,317,7.0,14.0,59,0.00,,,0.01,,2013-03-19 14:42:00,
2013-03-19 09:52:00,33.0,19.0,30.15,WNW,294,10.0,21.0,57,0.00,,,0.01,,2013-03-19 14:52:00,
2013-03-19 10:02:00,34.0,20.0,30.16,NW,304,9.0,19.0,56,0.00,,,0.01,,2013-03-19 15:02:00,
2013-03-19 10:12:00,34.0,20.0,30.16,NW,304,9.0,19.0,56,0.00,,,0.01,,2013-03-19 15:12:00,
2013-03-19 10:22:00,34.0,20.0,30.16,NW,304,9.0,19.0,56,0.00,,,0.01,,2013-03-19 15:22:00,
2013-03-19 10:33:00,35.0,21.0,30.18,WNW,292,9.0,16.0,57,0.00,,,0.01,,2013-03-19 15:33:00,
2013-03-19 10:43:00,35.0,21.0,30.18,WNW,292,9.0,16.0,57,0.00,,,0.01,,2013-03-19 15:43:00,
2013-03-19 10:53:00,35.0,21.0,30.18,NW,325,8.0,18.0,56,0.00,,,0.01,,2013-03-19 15:53:00,
2013-03-19 11:04:00,36.0,23.0,30.19,WSW,253,6.0,14.0,59,0.00,,,0.01,,2013-03-19 16:04:00,
2013-03-19 11:13:00,36.0,23.0,30.19,WSW,253,6.0,14.0,59,0.00,,,0.01,,2013-03-19 16:13:00,
2013-03-19 11:24:00,37.0,23.0,30.20,WSW,249,6.0,16.0,57,0.00,,,0.00,,2013-03-19 16:24:00,
2013-03-19 11:34:00,37.0,22.0,30.21,West,271,8.0,15.0,54,0.00,,,0.00,,2013-03-19 16:34:00,
2013-03-19 11:44:00,37.0,22.0,30.21,West,271,8.0,15.0,54,0.00,,,0.00,,2013-03-19 16:44:00,
2013-03-19 11:54:00,37.0,24.0,30.21,SW,225,6.0,18.0,59,0.00,,,0.00,,2013-03-19 16:54:00,
2013-03-19 12:03:00,38.0,22.0,30.21,WNW,301,10.0,16.0,52,0.00,,,0.00,,2013-03-19 17:03:00,
2013-03-19 12:13:00,38.0,22.0,30.21,WNW,301,10.0,16.0,52,0.00,,,0.00,,2013-03-19 17:13:00,
2013-03-19 12:23:00,39.0,23.0,30.22,NW,305,8.0,15.0,52,0.00,,,0.00,,2013-03-19 17:23:00,
2013-03-19 12:34:00,39.0,24.0,30.22,WNW,300,8.0,16.0,54,0.00,,,0.00,,2013-03-19 17:34:00,
2013-03-19 12:44:00,39.0,24.0,30.22,WNW,300,8.0,16.0,54,0.00,,,0.00,,2013-03-19 17:44:00,
2013-03-19 12:53:00,40.0,23.0,30.22,NW,315,8.0,14.0,51,0.00,,,0.00,,2013-03-19 17:53:00,
2013-03-19 13:03:00,40.0,24.0,30.22,WNW,292,9.0,16.0,52,0.00,,,0.00,,2013-03-19 18:03:00,
2013-03-19 13:13:00,40.0,24.0,30.22,WNW,292,9.0,16.0,52,0.00,,,0.00,,2013-03-19 18:13:00,
2013-03-19 13:23:00,41.0,23.0,30.22,WNW,289,11.0,19.0,48,0.00,,,0.00,,2013-03-19 18:23:00,
2013-03-19 13:33:00,41.0,25.0,30.22,WNW,293,7.0,16.0,52,0.00,,,0.00,,2013-03-19 18:33:00,
2013-03-19 13:43:00,41.0,25.0,30.22,WNW,293,7.0,16.0,52,0.00,,,0.00,,2013-03-19 18:43:00,
2013-03-19 13:53:00,41.0,22.0,30.22,NW,304,9.0,16.0,47,0.00,,,0.00,,2013-03-19 18:53:00,
2013-03-19 14:02:00,42.0,23.0,30.22,West,277,8.0,16.0,46,0.00,,,0.00,,2013-03-19 19:02:00,
2013-03-19 14:12:00,42.0,23.0,30.22,West,277,8.0,16.0,46,0.00,,,0.00,,2013-03-19 19:12:00,
2013-03-19 14:22:00,42.0,22.0,30.22,WNW,298,11.0,15.0,45,0.00,,,0.00,,2013-03-19 19:22:00,
2013-03-19 14:32:00,43.0,24.0,30.21,SSW,202,6.0,13.0,47,0.00,,,0.00,,2013-03-19 19:32:00,
2013-03-19 14:42:00,43.0,24.0,30.21,SSW,202,6.0,13.0,47,0.00,,,0.00,,2013-03-19 19:42:00,
2013-03-19 14:53:00,43.0,26.0,30.21,West,281,7.0,11.0,50,0.00,,,0.00,,2013-03-19 19:53:00,
2013-03-19 15:02:00,43.0,23.0,30.20,WNW,290,7.0,12.0,45,0.00,,,0.00,,2013-03-19 20:02:00,
2013-03-19 15:12:00,43.0,23.0,30.20,WNW,290,7.0,12.0,45,0.00,,,0.00,,2013-03-19 20:12:00,
2013-03-19 15:22:00,44.0,26.0,30.20,WNW,302,6.0,14.0,48,0.00,,,0.00,,2013-03-19 20:22:00,
2013-03-19 15:32:00,44.0,22.0,30.20,WNW,286,8.0,14.0,41,0.00,,,0.00,,2013-03-19 20:32:00,
2013-03-19 15:42:00,44.0,22.0,30.20,WNW,286,8.0,14.0,41,0.00,,,0.00,,2013-03-19 20:42:00,
2013-03-19 15:53:00,44.0,22.0,30.20,North,360,10.0,16.0,41,0.00,,,0.00,,2013-03-19 20:53:00,
2013-03-19 16:02:00,45.0,23.0,30.20,NW,321,9.0,21.0,42,0.00,,,0.00,,2013-03-19 21:02:00,
2013-03-19 16:12:00,45.0,23.0,30.20,NW,321,9.0,21.0,42,0.00,,,0.00,,2013-03-19 21:12:00,
2013-03-19 16:22:00,45.0,25.0,30.20,NW,304,5.0,13.0,45,0.00,,,0.00,,2013-03-19 21:22:00,
2013-03-19 16:33:00,45.0,23.0,30.20,WNW,289,6.0,12.0,42,0.00,,,0.00,,2013-03-19 21:33:00,
2013-03-19 16:43:00,45.0,23.0,30.20,WNW,289,6.0,12.0,42,0.00,,,0.00,,2013-03-19 21:43:00,
2013-03-19 16:53:00,44.0,23.0,30.20,West,281,5.0,11.0,43,0.00,,,0.00,,2013-03-19 21:53:00,
2013-03-19 17:03:00,44.0,23.0,30.21,WNW,284,6.0,13.0,43,0.00,,,0.00,,2013-03-19 22:03:00,
2013-03-19 17:12:00,44.0,23.0,30.21,WNW,284,6.0,13.0,43,0.00,,,0.00,,2013-03-19 22:12:00,
2013-03-19 17:23:00,44.0,21.0,30.21,WNW,285,5.0,12.0,40,0.00,,,0.00,,2013-03-19 22:23:00,
2013-03-19 17:33:00,44.0,21.0,30.21,WNW,285,5.0,12.0,40,0.00,,,0.00,,2013-03-19 22:33:00,
2013-03-19 17:43:00,44.0,21.0,30.21,WNW,285,5.0,12.0,40,0.00,,,0.00,,2013-03-19 22:43:00,
2013-03-19 17:53:00,43.0,23.0,30.21,WNW,283,6.0,11.0,44,0.00,,,0.00,,2013-03-19 22:53:00,
2013-03-19 18:02:00,43.0,21.0,30.21,WNW,286,6.0,10.0,41,0.00,,,0.00,,2013-03-19 23:02:00,
2013-03-19 18:12:00,43.0,21.0,30.21,WNW,286,6.0,10.0,41,0.00,,,0.00,,2013-03-19 23:12:00,
2013-03-19 18:22:00,43.0,20.0,30.21,WNW,299,5.0,10.0,40,0.00,,,0.00,,2013-03-19 23:22:00,
2013-03-19 18:32:00,43.0,24.0,30.21,WNW,290,2.0,6.0,46,0.00,,,0.00,,2013-03-19 23:32:00,
2013-03-19 18:42:00,43.0,24.0,30.21,WNW,290,2.0,6.0,46,0.00,,,0.00,,2013-03-19 23:42:00,
2013-03-19 18:52:00,43.0,25.0,30.21,NW,306,2.0,5.0,48,0.00,,,0.00,,2013-03-19 23:52:00,
2013-03-19 19:02:00,42.0,25.0,30.22,WNW,284,0.0,4.0,50,0.00,,,0.00,,2013-03-20 00:02:00,
2013-03-19 19:13:00,42.0,25.0,30.22,WNW,284,0.0,4.0,50,0.00,,,0.00,,2013-03-20 00:13:00,
2013-03-19 19:22:00,42.0,25.0,30.22,West,281,0.0,4.0,51,0.00,,,0.00,,2013-03-20 00:22:00,
2013-03-19 19:33:00,42.0,25.0,30.22,West,281,0.0,4.0,51,0.00,,,0.00,,2013-03-20 00:33:00,
2013-03-19 19:42:00,42.0,25.0,30.22,West,281,0.0,4.0,51,0.00,,,0.00,,2013-03-20 00:42:00,
2013-03-19 19:52:00,41.0,26.0,30.22,WSW,250,0.0,4.0,54,0.00,,,0.00,,2013-03-20 00:52:00,
2013-03-19 20:03:00,40.0,26.0,30.22,WSW,254,0.0,4.0,56,0.00,,,0.00,,2013-03-20 01:03:00,
2013-03-19 20:12:00,40.0,26.0,30.22,WSW,254,0.0,4.0,56,0.00,,,0.00,,2013-03-20 01:12:00,
2013-03-19 20:22:00,40.0,26.0,30.22,WSW,249,0.0,4.0,56,0.00,,,0.00,,2013-03-20 01:22:00,
2013-03-19 20:32:00,40.0,25.0,30.22,West,261,0.0,1.0,55,0.00,,,0.00,,2013-03-20 01:32:00,
2013-03-19 20:42:00,40.0,25.0,30.22,West,261,0.0,1.0,55,0.00,,,0.00,,2013-03-20 01:42:00,
2013-03-19 20:53:00,39.0,25.0,30.22,West,261,0.0,0.0,58,0.00,,,0.00,,2013-03-20 01:53:00,
2013-03-19 21:02:00,38.0,25.0,30.22,West,261,0.0,0.0,60,0.00,,,0.00,,2013-03-20 02:02:00,
2013-03-19 21:12:00,38.0,25.0,30.22,West,261,0.0,0.0,60,0.00,,,0.00,,2013-03-20 02:12:00,
2013-03-19 21:22:00,38.0,25.0,30.22,West,261,0.0,1.0,58,0.00,,,0.00,,2013-03-20 02:22:00,
2013-03-19 21:32:00,37.0,27.0,30.22,West,261,0.0,0.0,66,0.00,,,0.00,,2013-03-20 02:32:00,
2013-03-19 21:42:00,37.0,27.0,30.22,West,261,0.0,0.0,66,0.00,,,0.00,,2013-03-20 02:42:00,
2013-03-19 21:53:00,36.0,28.0,30.22,West,261,0.0,0.0,72,0.00,,,0.00,,2013-03-20 02:53:00,
2013-03-19 22:02:00,35.0,28.0,30.22,West,261,0.0,0.0,76,0.00,,,0.00,,2013-03-20 03:02:00,
2013-03-19 22:12:00,34.0,27.0,30.21,West,261,0.0,0.0,75,0.00,,,0.00,,2013-03-20 03:12:00,
2013-03-19 22:22:00,34.0,27.0,30.21,West,261,0.0,0.0,75,0.00,,,0.00,,2013-03-20 03:22:00,
2013-03-19 22:33:00,34.0,26.0,30.21,West,261,0.0,0.0,71,0.00,,,0.00,,2013-03-20 03:33:00,
2013-03-19 22:42:00,34.0,26.0,30.21,West,261,0.0,0.0,71,0.00,,,0.00,,2013-03-20 03:42:00,
2013-03-19 22:53:00,34.0,26.0,30.21,West,261,0.0,0.0,71,0.00,,,0.00,,2013-03-20 03:53:00,
2013-03-19 23:03:00,33.0,25.0,30.21,West,261,0.0,0.0,73,0.00,,,0.00,,2013-03-20 04:03:00,
2013-03-19 23:12:00,33.0,25.0,30.21,West,261,0.0,0.0,73,0.00,,,0.00,,2013-03-20 04:12:00,
2013-03-19 23:23:00,33.0,25.0,30.21,West,261,0.0,0.0,73,0.00,,,0.00,,2013-03-20 04:23:00,
2013-03-19 23:32:00,33.0,25.0,30.21,West,261,0.0,0.0,73,0.00,,,0.00,,2013-03-20 04:32:00,
2013-03-19 23:43:00,33.0,25.0,30.21,West,261,0.0,0.0,73,0.00,,,0.00,,2013-03-20 04:43:00,
2013-03-19 23:53:00,32.0,27.0,30.20,West,261,0.0,0.0,80,0.00,,,0.00,,2013-03-20 04:53:00,